Location: Unspecified
(0.0000°N, 0.0000°E)
Time: 15:48:05
(UTC+00:00)

AO-7 - Pass Details

Date: 09 December 2017
Orbit: 1440 x 1458 km, 101.7° (Epoch: 16 July)

Event Time Altitude Azimuth Distance (km) Brightness Sun altitude
Exits shadow 02:38:01 37° 69° (ENE) 2,130 ? -43.7°
Maximum altitude 02:40:25 45° 106° (ESE) 1,914 ? -43.2°
Drops below altitude 10° 02:48:13 10° 175° (S) 3,579 ? -41.5°
Sets 02:51:09 0° 181° (S) 4,557 ? -40.9°
